www.pogodaiklimat.ru

Погода и климат >> Архив погоды >> Иран >> Bandarabbass


ПОГОДА в Bandarabbass

  • Прогноз погоды в Bandarabbass
  • Монитор погоды в Bandarabbass
  • Климат города

АРХИВ ПОГОДЫ в Bandarabbass

Время (UTC), дата Ветер
(напр.,м/с)
 
Видим.   Явления Облачность Т
(С)
Тd
(С)
f
(%)
Тe
(С)
Тes
(С)
Комфортность P
(гПа)
Po
(гПа)
Тmin
(С)
Tmax
(С)
R
(мм)
R24
(мм)
S
(см)
15 11.08 Ю 3 4500 м мгла 8/4 900 м
[Sc Ac trans]
+34.0 +28.4 73 +56 +56 опасность
перегрева
997.4 996.3 +36.1
18 11.08 В 2 4500 м мгла 1/0
[Ac trans]
+33.5 +28.7 76 +56 +56 опасность
перегрева
998.4 997.4
21 11.08 СВ 2 4500 м мгла ясно +32.7 +28.1 77 +54 +54 опасность
перегрева
998.0 996.9
00 12.08 СВ 3 4000 м мгла 1/1 900 м
[Sc]
+32.6 +28.2 78 +54 +54 опасность
перегрева
997.3 996.2
03 12.08 СВ 2 4000 м мгла ясно +32.7 +28.5 79 +55 +57 опасность
перегрева
997.8 996.8 +31.8
06 12.08 Ю 3 4000 м мгла ясно +38.0 +27.4 55 +56 +69 опасность
перегрева
997.7 996.6
09 12.08 Ю 6 4000 м мгла ясно +38.5 +29.1 59 +62 +70 опасность
перегрева
995.6 994.6
12 12.08 Ю 6 3500 м мгла ясно +39.3 +30.2 60 +65 +68 опасность
перегрева
993.6 992.5
15 12.08 ЮЗ 4 3500 м мгла ясно +37.9 +28.9 60 +60 +60 опасность
перегрева
992.6 991.5 +40.0
18 12.08 Ю 2 3000 м мгла ясно +34.7 +29.4 74 +60 +60 опасность
перегрева
994.5 993.4
21 12.08 З 2 3000 м мгла ясно +33.2 +28.1 75 +54 +54 опасность
перегрева
993.3 992.2
00 13.08 СЗ 2 3000 м мгла ясно +31.2 +25.6 72 +46 +46 опасность
перегрева
993.2 992.1
03 13.08 СЗ 2 3000 м мгла ясно +32.1 +26.3 72 +49 +50 опасность
перегрева
993.6 992.5 +30.8
06 13.08 штиль 0 3500 м мгла ясно +39.7 +27.0 49 +57 +77 опасность
перегрева
994.1 993.1
09 13.08 Ю 6 3500 м мгла ясно +39.7 +27.5 50 +58 +66 опасность
перегрева
992.5 991.5
12 13.08 ЮЗ 6 4000 м мгла ясно +38.8 +29.3 59 +63 +66 опасность
перегрева
991.0 989.9
15 13.08 Ю 3 3500 м мгла ясно +35.6 +29.8 72 +62 +62 опасность
перегрева
991.6 990.5 +40.2
18 13.08 В 3 3500 м дымка ясно +34.4 +30.3 79 +62 +62 опасность
перегрева
992.6 991.6
21 13.08 С 3 3500 м мгла ясно +33.2 +28.9 78 +56 +56 опасность
перегрева
993.7 992.6
00 14.08 С 2 3000 м мгла ясно +31.9 +27.4 77 +51 +51 опасность
перегрева
993.9 992.8
03 14.08 штиль 0 3000 м мгла ясно +32.1 +26.5 72 +49 +51 опасность
перегрева
995.1 994.0 +30.8
06 14.08 ЮВ 4 3500 м мгла 1/1 1050 м
[Cu hum]
+42.2 +23.3 34 +51 +60 опасность
перегрева
996.1 995.1
09 14.08 Ю 8 4000 м мгла ясно +38.7 +27.4 53 +57 +61 опасность
перегрева
995.6 994.6
12 14.08 Ю 8 4000 м мгла ясно +38.4 +26.6 51 +55 +56 опасность
перегрева
994.4 993.3
15 14.08 Ю 4 4000 м мгла ясно +34.6 +28.2 69 +56 +56 опасность
перегрева
994.5 993.5 +43.1
18 14.08 СВ 3 3500 м мгла ясно +33.4 +26.6 68 +51 +51 опасность
перегрева
996.8 995.7
21 14.08 В 2 3000 м мгла ясно +32.2 +27.0 74 +50 +50 опасность
перегрева
996.7 995.6
00 15.08 СВ 3 3000 м мгла ясно +31.5 +26.8 76 +49 +49 опасность
перегрева
996.5 995.4
03 15.08 СВ 2 3000 м мгла 1/0
[Ci fib]
+31.4 +27.2 78 +49 +51 опасность
перегрева
997.5 996.4 +30.9
06 15.08 ЮВ 4 4000 м мгла ясно +35.9 +26.5 59 +53 +63 опасность
перегрева
998.6 997.6
09 15.08 ЮВ 5 4000 м мгла ясно +36.8 +28.5 63 +59 +70 опасность
перегрева
997.8 996.8
12 15.08 Ю 4 4000 м мгла ясно +36.9 +27.3 58 +55 +60 опасность
перегрева
996.1 995.1
15 15.08 ЮВ 4 4000 м мгла ясно +33.8 +28.7 75 +57 +57 опасность
перегрева
996.1 995.1 +37.7
18 15.08 В 3 3500 м дымка ясно +32.7 +29.2 82 +57 +57 опасность
перегрева
997.8 996.8
21 15.08 СВ 3 3000 м мгла ясно +31.8 +27.3 77 +50 +50 опасность
перегрева
997.9 996.8
00 16.08 СВ 2 3000 м мгла ясно +30.8 +26.4 77 +47 +47 опасность
перегрева
998.0 996.9
03 16.08 СВ 3 3000 м мгла 1/0
[Ac trans]
+31.3 +25.7 72 +46 +47 опасность
перегрева
999.6 998.6 +30.0
06 16.08 ЮВ 5 3500 м мгла 3/3 1050 м
[Sc diur, vesp]
+34.8 +28.2 69 +56 +62 опасность
перегрева
1000.7 999.7
09 16.08 ЮВ 5 3500 м мгла ясно +36.9 +27.0 57 +55 +65 опасность
перегрева
999.7 998.7
12 16.08 Ю 4 4000 м мгла ясно +35.7 +29.5 70 +60 +66 опасность
перегрева
997.7 996.7
15 16.08 ЮВ 5 4000 м мгла ясно +34.0 +29.4 77 +59 +59 опасность
перегрева
997.5 996.4 +37.4
18 16.08 В 4 4000 м дымка ясно +32.7 +29.0 81 +56 +56 опасность
перегрева
999.2 998.1
21 16.08 В 3 3500 м дымка 5/5 1050 м
[Sc]
+32.3 +29.0 83 +56 +56 опасность
перегрева
999.3 998.3
00 17.08 СВ 3 3500 м дымка 3/3 900 м
[Sc]
+31.4 +27.6 80 +50 +50 опасность
перегрева
998.9 997.8
03 17.08 СВ 3 3500 м дымка 6/6 900 м
[Sc]
+31.5 +27.7 80 +51 +51 опасность
перегрева
999.5 998.4 +31.1
06 17.08 ЮВ 4 4000 м мгла 3/3 900 м
[Sc]
+34.5 +28.0 69 +55 +62 опасность
перегрева
1000.4 999.3
09 17.08 ЮВ 4 4000 м мгла ясно +35.9 +28.4 65 +57 +71 опасность
перегрева
999.0 998.0
12 17.08 Ю 4 4000 м мгла ясно +35.8 +28.9 68 +59 +64 опасность
перегрева
996.8 995.7
15 17.08 Ю 2 3000 м мгла 4/0
[Ci fib]
+33.8 +28.9 76 +57 +57 опасность
перегрева
996.1 995.1 +36.8
18 17.08 В 2 3500 м дымка ясно +32.7 +28.8 80 +56 +56 опасность
перегрева
996.8 995.7
21 17.08 СВ 3 3500 м дымка ясно +31.6 +28.4 83 +53 +53 опасность
перегрева
996.6 995.5
00 18.08 С 2 4000 м дымка ясно +30.7 +28.0 86 +51 +51 опасность
перегрева
996.1 995.1
03 18.08 штиль 0 3000 м дымка ясно +30.8 +28.5 88 +52 +55 опасность
перегрева
996.8 995.7 +29.8
06 18.08 ЮВ 2 4000 м мгла 1/1 900 м
[Cu hum]
+35.8 +29.0 68 +59 +73 опасность
перегрева
998.1 997.1
09 18.08 Ю 6 4000 м мгла 1/1 600 м
[Cu hum]
+36.3 +28.8 65 +59 +66 опасность
перегрева
997.2 996.2
12 18.08 Ю 6 4000 м мгла ясно +36.2 +29.2 67 +60 +63 опасность
перегрева
995.5 994.5

 

Местоположение метеостанции Bandarabbass (Иран): широта 27.22 долгота 56.37 высота над уровнем моря 10 м.

В архиве по умолчанию представлена погода в Bandarabbass за последнюю неделю. Архивные данные за месяц целиком и за предыдущие месяцы, начиная с января 2011 года, Вы можете получить, выбрав интересующий диапазон дат из раскрывающегося списка и нажав кнопку "Ввод!".


*Определитесь, кто Вы:
робот инопланетянин человек

Внимание! Время в таблицах - всемирное. Для получения местного времени необходимо прибавить поправку, которая в Bandarabbass равна 3.5 ч.

Смотрите также архив погоды в соседних городах и на ближайших метеорологических станциях:

Погода в Khasab (Оман) (113 км)
Погода в Khasab Airport (Оман) (118 км)
Погода в Kahnuj (Иран) (155 км)
Погода в Bandar Lengeh (Иран) (169 км)
Погода в Diba (Оман) (178 км)
Погода в Ras Al Khaimah Int Airport (ОАЭ) (183 км)
Погода в Abu Musa Island (Иран) (218 км)
Погода в Baft (Иран) (224 км)
Погода в Jask (Иран) (225 км)
Погода в Sharjah (ОАЭ) (227 км)

Пояснения к столбцам:

Ветер - указаны скорость ветра в м/с - средняя за 10 мин, порывы в срок и между сроками (в фигурных скобках) и направление, откуда дует ветер: С - северный, СВ - северо-восточный, В - восточный, ЮВ - юго-восточный, Ю - южный, ЮЗ - юго-западный, З - западный, СЗ - северо-западный.
Видимость - горизонтальная дальность видимости в метрах или километрах. При видимости от 1 до 10 км при отсутствии осадков обычно наблюдается дымка, при ухудшении видимости до 1 км и менее - туман. В сухую погоду видимость может ухудшаться дымом, пылью или мглою.
Явления - указаны атмосферные явления, наблюдавшиеся в срок или в последний час перед сроком; фигурными скобками обозначены явления, наблюдавшиеся между сроками (за 1-3 часа до срока); квадратными скобками обозначены град или гололедные отложения с указанием их диаметра в мм.
Облачность - указаны через наклонную черту общая и нижняя облачность в баллах и высота нижней границы облаков в метрах; квадратными скобками обозначены формы облаков: Ci - перистые, Cs - перисто-слоистые, Cc - перисто-кучевые, Ac - высококучевые, As - высокослоистые, Sc - слоисто-кучевые, Ns - слоисто-дождевые, Cu - кучевые, Cb - кучево-дождевые. Подробнее классификацию облаков см. в Атласе облаков (PDF).
T - Температура воздуха - температура, измеренная на высоте 2 м над землей.
Td - Температура точки росы - температура, при понижении до которой содержащийся в воздухе водяной пар достигнет насыщения.
f - Относительная влажность воздуха - влажноcть воздуха, измеренная на высоте 2 м над землей.
Te - Эффективная температура - температура, которую ощущает одетый по сезону человек в тени. Характеристика душности погоды. При расчете учитывается влияние влажности воздуха и скорости ветра на теплоощущения человека.
Tes - Эффективная температура на солнце - температура, которую ощущает человек, с поправкой на солнечный нагрев. Характеристика знойности погоды. Зависит от высоты солнца над горизонтом, облачности и скорости ветра. Ночью, в пасмурную погоду, а также при ветре 12 м/с и более поправка равна нулю.
P - Атмосферное давление - приведенное к уровню моря атмосферное давление.
Po - Атмосферное давление - измеренное на уровне метеостанции атмосферное давление.
Tmin - Минимальная температура - минимум температуры воздуха на высоте 2 м над землей.
Tmax - Максимальная температура - максимум температуры воздуха на высоте 2 м над землей.
R - Количество осадков - Количество выпавших осадков за период времени, мм. При наведении курсора мыши на число - период времени, за который выпало указанное количество осадков.
R24 - Количество осадков - Количество выпавших осадков за 24 часа, мм.
S - Снежный покров - Высота снежного покрова, см. При наведении курсора мыши на число - состояние снежного покрова и степень покрытия местности в баллах.